Location: Recife
(8.0585°S, 34.8848°W)
Time: 12:51:26
(UTC-03:00)

Tiros 1 - Pass Details

Date: 17 April 2026
Orbit: 618 x 648 km, 48.4° (Epoch: 11 May)

Event Time Altitude Azimuth Distance (km) Brightness Sun altitude
Rises 06:08:18 0° 224° (SW) 2,897 10.0 10.5°
Reaches altitude 10° 06:10:38 10° 227° (SW) 1,985 9.2 11.0°
Maximum altitude 06:15:10 66° 309° (NW) 671 7.3 12.1°
Drops below altitude 10° 06:19:39 10° 31° (NNE) 1,967 10.4 13.2°
Sets 06:21:57 0° 34° (NE) 2,869 11.2 13.8°
